Find OneWeb SL0399

NORAD ID: 50479 Int'l Des: 2021-132 Owner: ONEWEBN Country: UK Constellation: oneweb operational
LEOCIRCULARPOLARONEWEB_TYPE

Live Position

Loading 3D Globe...

About OneWeb SL0399

Description loading...

Upcoming Passes

Passes for default location (London). Set your location on the main map for personalized predictions.

Altitude History

Loading altitude history...

Two-Line Element Set

1 50479U 21132L 26126.46321657 -.00000136 00000-0 -41917-3 0 9992
2 50479 87.8934 29.3633 0002114 91.7137 268.4233 13.11420174210137
Epoch: May 6, 2026 • Age: 12 hours

Current Status

Altitude 1219.8 km
Velocity 7.25 km/s
Sub-Earth Point 22.49°N, 0.03°E
Launch Date Dec 27, 2021
Age 4.3 years
Type internet

Technical Details

Classification Payload
Mass 148.00 kg
Dry Mass 140.00 kg
Total Mass 148.00 kg
Length 1.30 m
Diameter 1.00 m
Span 5.00 m
Shape Trapezoid+2 pan
Manufacturer ONEWUS
Bus Type ARROW
Phase Status In Orbit
Owner/State ONEWEBN/UK

Most Searched